Simultaneous Nadir Overpasses (SNOs) Predictions

Prediction of SNOs between GOES-16 and METOP-B Satellite Orbit:

Table of predicted SNOs for the next 14.0 days since TLE Epoch: 2/18/2023
Index Date Time (GOES-16) GOES-16 Lat,Lon METOP-B Lat,Lon Distance(km) Time Diff (sec)
1 02/19/2023 02:46:25 -0.03, -75.19 -0.77, -78.58 386.19 80
2 02/20/2023 02:23:05 -0.03, -75.19 0.32, -73.58 183.46 80
3 02/21/2023 14:44:38 0.04, -75.22 0.68, -78.15 333.10 80
4 02/22/2023 14:21:18 0.03, -75.24 -0.42, -73.15 237.14 80
5 02/24/2023 02:42:58 -0.04, -75.24 -0.62, -77.75 285.98 80
6 02/25/2023 02:19:40 -0.03, -75.26 0.55, -72.76 284.61 80
7 02/26/2023 14:41:11 0.03, -75.30 0.49, -77.32 230.91 80
8 02/27/2023 14:17:52 0.03, -75.31 -0.62, -72.33 339.95 80
9 03/01/2023 02:39:32 -0.03, -75.33 -0.40, -76.92 182.28 80
10 03/02/2023 02:16:13 -0.03, -75.35 0.71, -71.93 388.93 80
11 03/03/2023 14:37:45 0.03, -75.39 0.26, -76.50 125.66 80
